METEOR 2-17 DEB, 35365

Orbit data source: Space-Track

METEOR 2-17 DEB, 35365 is space debris in LEO originally from a launch on Sat, 30 Jan 1988 UTC launched from the Plesetsk Missile And Space Complex (PKMTR). Debris objects in space refer to the collection of defunct objects orbiting the Earth. Examples of debris include non-operational satellites, rocket bodies, and fragments generated from explosions, collisions, or faulty payload assembly.

Loading next visibility...
Identifier
35365, 1988-005Z
Orbit
LEO
Country
Flag of CISCIS
Related business
Manufacturer
Unknown
Mission
Spacecraft
Bus & Motor
Unknown
Mass
Unknown
Launch date (UTC)
1988-01-30 (38 years ago)
Launch vehicle
Unknown
Launch site
Plesetsk Missile And Space Complex (PKMTR)
Object type
Payload
Rocket body
Debris
Shape & HBR
Unknown shape, 0.1 m
Radar Cross Section
Small (<0.1 m²)

Expand to show TLE details & history
Last TLE update: 4 days ago

TLE from 4 days ago
0 METEOR 2-17 DEB
1 35365U 88005Z   25347.92894875  .00003567  00000-0  23931-2 0  9997
2 35365  82.5020  49.0152 0003156 121.8942 359.5888 14.00525963594160
Epoch: 2025-12-13T22:17Z
TLE epoch observation values (Epoch: 2025-12-13T22:17:41.171Z)
Latitude
57.82324°
Longitude
159.73376°
Altitude
899.41 km
Speed
7.409 km/s
True Right ascension
14h 28m 01s
True Declination
57° 40' 16"
Sunlit
Object was in daylight at epoch
Visualization orbit readout
Latitude
Unknown
Longitude
Unknown
Altitude
Unknown
Speed
Unknown
Apparent Right ascension
Unknown
Apparent Declination
Unknown
Sunlit
N/A
Visualization observer readout
Local Sidereal Time
08:20:44
Azimuth
Unknown
Elevation
Unknown
Doppler factor
Unknown
Orbital elements
Apogee altitude
891.399 km
Perigee altitude
886.812 km
Semi-major axis
7,267.242 km
Eccentricity
0.00032
Inclination
82.502°
RAAN
49.0152°
Arg. of periapsis
121.8942°
True anomaly
359.58854°
Mean anomaly
359.5888°
Eccentric anomaly
359.58867°
Mean motion
3.50339 °/min
Orbital period
102.76 mins
BSTAR
0.0023931
Loading maneuver chart data...
Computing Atmospheric mass density...
Loading historical data...
Loading historical data...
Loading historical data...
Loading historical data...
Loading historical data...
Loading historical data...
Loading historical data...

Documentation

Showing up to 5 results
|